Location: Clanezzo
(45.7500°N, 9.6000°E)
Time: 13:00:28
(UTC+00:00)

SPOT 3 Rocket - Pass Details

Date: 12 May 2021
Orbit: 779 x 794 km, 98.7° (Epoch: 19 June)

Event Time Altitude Azimuth Distance (km) Brightness Sun altitude
Exits shadow 19:25:58 - 144° (SE) 2,565 5.6 -7.2°
Reaches altitude 10° 19:26:34 10° 142° (SE) 2,333 5.4 -7.3°
Maximum altitude 19:31:30 48° 69° (ENE) 1,012 3.9 -8.0°
Drops below altitude 10° 19:36:27 10° 356° (N) 2,344 6.7 -8.7°
Sets 19:38:50 0° 351° (N) 3,276 7.6 -9.0°
